STARLINK-32632, 62262

Orbit data source: Space-Track

STARLINK-32632, 62262 is a payload satellite owned by SpaceX/Seattle (US) in LEO that was launched on Thu, 05 Dec 2024 UTC via an FALCON 9 launch vehicle from the Air Force Western Test Range (AFWTR). Payload-class satellites include a variety of spacecraft equipped with specific instruments for various scientific and technological missions. These include communications satellites like Starlink; space stations such as the ISS; scientific satellites like the Hubble; Earth observation satellites from companies like Planet Labs, Umbra, and HawkEye 360; GPS; miniature CubeSats for education and research; and military/defense satellites.

Loading next visibility...
Identifier
62262, 2024-231V
Orbit
LEO
Country
Flag of USUS
Related business
Manufacturer
SpaceX/Seattle
Mission
Operational Commercial Communications
Bus & Motor
STARLINK V2M, Unknown motor
Mass
730 kg wet, ~700 kg dry
Launch date (UTC)
2024-12-05 (1 year ago)
Launch vehicle
FALCON 9
Launch site
Air Force Western Test Range (AFWTR)
Object type
Payload
Rocket body
Debris
Shape & HBR
Box + 2 Pan, 17.7 m
Radar Cross Section
33.884 m², Large (>1 m²)

Expand to show TLE details & history
Last TLE update: 5 hours ago

TLE from 5 hours ago
0 STARLINK-32632
1 62262U 24231V   26126.53693498  .00019325  00000-0  66295-3 0  9995
2 62262  53.1588 311.0264 0001078  87.8504 272.2620 15.30196763 80623
Epoch: 2026-05-06T12:53Z
TLE epoch observation values (Epoch: 2026-05-06T12:53:11.182Z)
Latitude
-0.00003°
Longitude
-106.66622°
Altitude
476.095 km
Speed
7.629 km/s
True Right ascension
20h 44m 06s
True Declination
0° 00' 00"
Sunlit
Object was in daylight at epoch
Visualization orbit readout
Latitude
Unknown
Longitude
Unknown
Altitude
Unknown
Speed
Unknown
Apparent Right ascension
Unknown
Apparent Declination
Unknown
Sunlit
N/A
Visualization observer readout
Local Sidereal Time
02:18:35
Azimuth
Unknown
Elevation
Unknown
Doppler factor
Unknown
Orbital elements
Apogee altitude
476.22 km
Perigee altitude
474.743 km
Semi-major axis
6,853.618 km
Eccentricity
0.00011
Inclination
53.1588°
RAAN
311.0264°
Arg. of periapsis
87.8504°
True anomaly
272.24966°
Mean anomaly
272.262°
Eccentric anomaly
272.25583°
Mean motion
3.82528 °/min
Orbital period
94.11 mins
BSTAR
0.00066295
Loading maneuver chart data...
Computing Atmospheric mass density...
Loading historical data...
Loading historical data...
Loading historical data...
Loading historical data...
Loading historical data...
Loading historical data...
Loading historical data...

Documentation

Showing up to 5 results
|